This is the latest recevied weather packets stored in our database for station/object N6GPM. If no packets are shown the sender has not sent any weather packets the latest 10 day(s).
| Time | Temp. | Humidity | Pressure | Rain* | Wind** | Luminosity | Snow |
|---|---|---|---|---|---|---|---|
| 1777829145 | 15° C | 80% | 1017.6 hPa | 0 mm | - | 140 W/m² | - |
| 1777827630 | 15° C | 82% | 1017.5 hPa | 0 mm | - | 121 W/m² | - |
| 1777820965 | 12.78° C | 93% | 1017 hPa | 0 mm | - | 35 W/m² | - |
| 1777819148 | 12.78° C | 94% | 1017 hPa | 0 mm | - | 19 W/m² | - |
| 1777817025 | 12.78° C | 95% | 1016.6 hPa | 0 mm | - | 18 W/m² | - |
| 1777811575 | 12.22° C | 94% | 1015.6 hPa | 0 mm | - | 0 W/m² | - |
| 1777811270 | 12.22° C | 94% | 1015.8 hPa | 0 mm | - | 0 W/m² | - |
| 1777810967 | 12.22° C | 94% | 1016 hPa | 0 mm | - | 0 W/m² | - |
| 1777810664 | 12.22° C | 94% | 1015.8 hPa | 0 mm | - | 0 W/m² | - |
| 1777810361 | 12.22° C | 94% | 1015.6 hPa | 0 mm | - | 0 W/m² | - |
| 1777809755 | 12.22° C | 94% | 1015.9 hPa | 0 mm | - | 0 W/m² | - |
| 1777809452 | 12.22° C | 94% | 1015.7 hPa | 0 mm | - | 0 W/m² | - |
| 1777809150 | 12.22° C | 94% | 1015.8 hPa | 0 mm | - | 0 W/m² | - |
| 1777808241 | 12.22° C | 94% | 1016 hPa | 0 mm | - | 0 W/m² | - |
| 1777807940 | 12.22° C | 94% | 1015.7 hPa | 0 mm | - | 0 W/m² | - |
| 1777807637 | 12.22° C | 94% | 1016 hPa | 0 mm | - | 0 W/m² | - |
| 1777807030 | 12.22° C | 94% | 1015.8 hPa | 0 mm | - | 0 W/m² | - |
| 1777806727 | 12.22° C | 94% | 1015.8 hPa | 0 mm | - | 0 W/m² | - |
| 1777806423 | 12.22° C | 94% | 1015.8 hPa | 0 mm | - | 0 W/m² | - |
| 1777806120 | 12.22° C | 93% | 1015.9 hPa | 0 mm | - | 0 W/m² | - |
| 1777805816 | 12.22° C | 93% | 1016 hPa | 0 mm | - | 0 W/m² | - |
| 1777804607 | 12.78° C | 93% | 1016.1 hPa | 0 mm | - | 0 W/m² | - |
| 1777804304 | 12.22° C | 92% | 1016.1 hPa | 0 mm | - | 0 W/m² | - |
| 1777804001 | 12.22° C | 92% | 1015.9 hPa | 0 mm | - | 0 W/m² | - |
| 1777803698 | 12.78° C | 92% | 1015.9 hPa | 0 mm | - | 0 W/m² | - |
* Rain latest hour (hover to see other rain measurements)
** Current wind speed in m/s (hover to see current wind gust speed)